KAL212 EDDB-ESSA

Flight info

Callsign KAL212
Flight time N/A
Altitude 28000
Route GERGA4B/06L GERGA M725 RENKI Y89 USEDU DCT BANUB DCT POKEN DCT VIBAR Z227 NILUG
Aircraft B77W/H-SDE1E2E3FGHIJ2J3J4J5M1RWXY/LB1D1

Departure

Time N/A
Airport Berlin Brandenburg Airport (EDDB)

Arrival

Time 2026-05-07 18:50
Airport Stockholm-Arlanda Airport (ESSA)
Time Latitude Longitude Altitude Speed Heading
2026-05-07 18:08 56.99177 15.97862 28138 ft 437 kts 19°
2026-05-07 18:08 57.04876 16.01803 28130 ft 437 kts 19°
2026-05-07 18:09 57.10565 16.05754 28131 ft 437 kts 19°
2026-05-07 18:09 57.16246 16.09738 28134 ft 437 kts 20°
2026-05-07 18:10 57.21662 16.14893 28144 ft 439 kts 27°
2026-05-07 18:10 57.26961 16.20491 28132 ft 439 kts 27°
2026-05-07 18:11 57.32271 16.26080 28133 ft 439 kts 27°
2026-05-07 18:11 57.37558 16.31597 28133 ft 439 kts 27°
2026-05-07 18:11 57.40248 16.34396 28149 ft 450 kts 27°
2026-05-07 18:12 57.43029 16.37287 28161 ft 468 kts 26°
2026-05-07 18:12 57.48791 16.43297 28129 ft 476 kts 27°
2026-05-07 18:13 57.54558 16.49352 28147 ft 476 kts 27°
2026-05-07 18:13 57.59344 16.54392 28134 ft 475 kts 27°
2026-05-07 18:14 57.66034 16.61460 28135 ft 475 kts 27°
2026-05-07 18:14 57.71785 16.67557 28138 ft 475 kts 27°
2026-05-07 18:15 57.77531 16.73671 28138 ft 475 kts 27°
2026-05-07 18:15 57.82308 16.78771 28154 ft 475 kts 27°
2026-05-07 18:16 57.88051 16.84926 28151 ft 475 kts 27°
2026-05-07 18:16 57.93794 16.91103 28155 ft 476 kts 27°
2026-05-07 18:17 57.99509 16.97271 28150 ft 477 kts 27°
2026-05-07 18:17 58.05266 17.03508 28152 ft 478 kts 27°
2026-05-07 18:18 58.11032 17.09778 28150 ft 478 kts 27°
2026-05-07 18:18 58.16790 17.16065 28175 ft 478 kts 26°
2026-05-07 18:19 58.22552 17.22378 28152 ft 475 kts 26°
2026-05-07 18:19 58.25321 17.25430 28103 ft 459 kts 26°
2026-05-07 18:19 58.28054 17.28447 27567 ft 453 kts 26°
2026-05-07 18:19 58.30759 17.31431 27040 ft 446 kts 26°
2026-05-07 18:20 58.33429 17.34381 26530 ft 440 kts 26°
2026-05-07 18:20 58.36055 17.37286 26136 ft 432 kts 26°
2026-05-07 18:20 58.38625 17.40136 25810 ft 423 kts 26°
2026-05-07 18:20 58.41148 17.42938 25421 ft 417 kts 26°
2026-05-07 18:21 58.43643 17.45712 24905 ft 415 kts 25°
2026-05-07 18:21 58.46141 17.48491 24368 ft 414 kts 25°
2026-05-07 18:21 58.48605 17.51239 24019 ft 408 kts 25°
2026-05-07 18:21 58.51008 17.53926 23631 ft 403 kts 25°
2026-05-07 18:22 58.53415 17.56621 23128 ft 400 kts 26°
2026-05-07 18:22 58.55033 17.58433 22774 ft 398 kts 26°
2026-05-07 18:22 58.58184 17.61970 22102 ft 394 kts 26°
2026-05-07 18:22 58.60539 17.64618 21629 ft 391 kts 26°
2026-05-07 18:23 58.62876 17.67252 21156 ft 388 kts 26°
2026-05-07 18:23 58.65196 17.69870 20688 ft 386 kts 26°
2026-05-07 18:23 58.67501 17.72476 20235 ft 383 kts 26°
2026-05-07 18:23 58.69794 17.75071 19760 ft 382 kts 26°
2026-05-07 18:24 58.72045 17.77622 19322 ft 379 kts 26°
2026-05-07 18:24 58.74307 17.80191 18903 ft 376 kts 26°
2026-05-07 18:24 58.76554 17.82746 18485 ft 374 kts 26°
2026-05-07 18:24 58.78787 17.85288 18005 ft 371 kts 26°
2026-05-07 18:25 58.80997 17.87809 17545 ft 368 kts 26°
2026-05-07 18:25 58.83219 17.90200 17099 ft 363 kts 23°
2026-05-07 18:25 58.85471 17.92340 16662 ft 359 kts 21°
2026-05-07 18:25 58.87720 17.94399 16224 ft 356 kts 21°
2026-05-07 18:26 58.89953 17.96445 15784 ft 354 kts 21°
2026-05-07 18:26 58.92162 17.98493 15375 ft 351 kts 21°
2026-05-07 18:26 58.94350 18.00542 14982 ft 348 kts 21°
2026-05-07 18:26 58.96488 18.02559 14587 ft 345 kts 22°
2026-05-07 18:27 58.98635 18.04592 14180 ft 343 kts 22°
2026-05-07 18:27 59.00767 18.06616 13764 ft 340 kts 22°
2026-05-07 18:27 59.02886 18.08632 13310 ft 337 kts 22°
2026-05-07 18:27 59.04981 18.10628 12875 ft 334 kts 22°
2026-05-07 18:28 59.07058 18.12611 12459 ft 330 kts 22°
2026-05-07 18:28 59.09187 18.14071 11898 ft 326 kts
2026-05-07 18:28 59.11424 18.14743 11876 ft 325 kts
2026-05-07 18:28 59.13671 18.15251 11870 ft 326 kts
2026-05-07 18:29 59.15896 18.15731 11750 ft 318 kts
2026-05-07 18:29 59.18039 18.16192 11547 ft 310 kts
2026-05-07 18:29 59.20154 18.16644 11322 ft 302 kts
2026-05-07 18:29 59.22206 18.17087 11220 ft 291 kts
2026-05-07 18:30 59.24180 18.17427 11144 ft 281 kts 359°
2026-05-07 18:30 59.26141 18.17561 11146 ft 282 kts 358°
2026-05-07 18:30 59.28097 18.17659 11136 ft 281 kts 358°
2026-05-07 18:30 59.30050 18.17750 11154 ft 280 kts 358°
2026-05-07 18:31 59.31993 18.17836 11160 ft 279 kts 358°
2026-05-07 18:31 59.33928 18.17920 11157 ft 278 kts 358°
2026-05-07 18:31 59.35865 18.18002 11158 ft 278 kts 357°
2026-05-07 18:31 59.37798 18.18085 11158 ft 278 kts 357°
2026-05-07 18:32 59.39702 18.18166 11056 ft 277 kts 357°
2026-05-07 18:32 59.41628 18.18246 10833 ft 277 kts 358°
2026-05-07 18:32 59.43554 18.18324 10561 ft 276 kts 358°
2026-05-07 18:32 59.45475 18.18396 10307 ft 275 kts 358°
2026-05-07 18:33 59.47371 18.18466 10113 ft 269 kts 358°
2026-05-07 18:33 59.49221 18.18534 9909 ft 263 kts 358°
2026-05-07 18:33 59.51044 18.18593 9601 ft 261 kts 358°
2026-05-07 18:33 59.52851 18.18642 9284 ft 259 kts 358°
2026-05-07 18:34 59.54649 18.18677 8904 ft 258 kts 358°
2026-05-07 18:34 59.56422 18.18697 8579 ft 258 kts 358°
2026-05-07 18:34 59.58211 18.18701 8245 ft 257 kts 358°
2026-05-07 18:34 59.59992 18.18692 7921 ft 256 kts 358°
2026-05-07 18:35 59.61768 18.18669 7596 ft 255 kts 358°
2026-05-07 18:35 59.63538 18.18633 7263 ft 254 kts 358°
2026-05-07 18:35 59.65304 18.18583 6960 ft 253 kts 358°
2026-05-07 18:35 59.67062 18.18519 6652 ft 252 kts 358°
2026-05-07 18:36 59.68812 18.18440 6319 ft 251 kts 358°
2026-05-07 18:36 59.70560 18.18352 5997 ft 251 kts 358°
2026-05-07 18:36 59.72297 18.18261 5693 ft 249 kts 358°
2026-05-07 18:36 59.74030 18.18161 5378 ft 249 kts 358°
2026-05-07 18:37 59.75763 18.18049 5019 ft 250 kts 358°
2026-05-07 18:37 59.77448 18.17450 4528 ft 248 kts 336°
2026-05-07 18:37 59.78937 18.15716 4181 ft 247 kts 327°
2026-05-07 18:37 59.80335 18.13940 4089 ft 236 kts 328°
2026-05-07 18:38 59.81695 18.12216 3950 ft 228 kts 328°
2026-05-07 18:38 59.82957 18.10399 3633 ft 223 kts 312°
2026-05-07 18:38 59.83655 18.07655 3198 ft 226 kts 278°
2026-05-07 18:38 59.83468 18.04598 2801 ft 226 kts 243°
2026-05-07 18:39 59.82518 18.02188 2605 ft 225 kts 220°
2026-05-07 18:39 59.81321 18.00109 2594 ft 227 kts 215°
2026-05-07 18:39 59.79915 17.99101 2549 ft 212 kts 183°
2026-05-07 18:39 59.78480 17.98584 2566 ft 210 kts 193°
2026-05-07 18:40 59.77030 17.98333 2566 ft 210 kts 170°
2026-05-07 18:40 59.75636 17.98790 2553 ft 198 kts 171°
2026-05-07 18:40 59.74292 17.99151 2556 ft 192 kts 170°
2026-05-07 18:40 59.73077 18.00191 2580 ft 194 kts 135°
2026-05-07 18:41 59.72428 18.02533 2691 ft 198 kts 101°
2026-05-07 18:41 59.72243 18.05243 2978 ft 204 kts 98°
2026-05-07 18:41 59.72056 18.08099 3644 ft 214 kts 97°
2026-05-07 18:41 59.71854 18.11090 4078 ft 223 kts 97°
2026-05-07 18:42 59.71639 18.14203 4072 ft 230 kts 97°
2026-05-07 18:42 59.71675 18.17286 4064 ft 223 kts 71°
2026-05-07 18:42 59.72514 18.19806 4085 ft 223 kts 38°
2026-05-07 18:42 59.73928 18.20993 4087 ft 225 kts
2026-05-07 18:43 59.75455 18.20451 4091 ft 226 kts 334°
2026-05-07 18:43 59.76801 18.18860 4093 ft 226 kts 328°
2026-05-07 18:43 59.78101 18.17232 4057 ft 216 kts 328°
2026-05-07 18:43 59.79314 18.15703 4063 ft 203 kts 328°
2026-05-07 18:44 59.80488 18.14219 4063 ft 199 kts 327°
2026-05-07 18:44 59.81652 18.12718 4077 ft 201 kts 327°
2026-05-07 18:44 59.82833 18.11196 4084 ft 202 kts 323°
2026-05-07 18:44 59.83701 18.09051 3950 ft 203 kts 289°
2026-05-07 18:45 59.83762 18.06287 3650 ft 205 kts 252°
2026-05-07 18:45 59.82953 18.04024 3302 ft 204 kts 213°
2026-05-07 18:45 59.81688 18.02794 2999 ft 203 kts 198°
2026-05-07 18:45 59.80352 18.01999 2695 ft 199 kts 194°
2026-05-07 18:46 59.79059 18.01135 2620 ft 194 kts 195°
2026-05-07 18:46 59.77747 18.00538 2587 ft 194 kts 188°
2026-05-07 18:46 59.76404 18.00071 2506 ft 200 kts 188°
2026-05-07 18:46 59.75070 17.99594 2238 ft 192 kts 189°
2026-05-07 18:47 59.73800 17.99131 1969 ft 177 kts 189°
2026-05-07 18:47 59.72643 17.98710 1710 ft 160 kts 189°
2026-05-07 18:47 59.71610 17.98333 1493 ft 143 kts 189°
2026-05-07 18:47 59.70654 17.97985 1332 ft 140 kts 188°
2026-05-07 18:48 59.69698 17.97637 1115 ft 139 kts 188°
2026-05-07 18:48 59.68756 17.97294 934 ft 138 kts 188°
2026-05-07 18:48 59.67810 17.96953 733 ft 139 kts 187°
2026-05-07 18:48 59.66851 17.96629 525 ft 140 kts 188°
2026-05-07 18:49 59.65909 17.96252 379 ft 137 kts 188°
2026-05-07 18:49 59.64962 17.95908 198 ft 139 kts 188°
2026-05-07 18:49 59.64065 17.95593 150 ft 122 kts 191°
2026-05-07 18:49 59.63411 17.95357 148 ft 69 kts 190°
2026-05-07 18:50 59.63130 17.95253 147 ft 21 kts 194°
2026-05-07 18:50 59.63044 17.95182 149 ft 17 kts 208°
2026-05-07 18:50 59.62926 17.95023 145 ft 13 kts 219°
2026-05-07 18:50 59.62907 17.94992 144 ft 0 kts 220°
2026-05-07 18:51 59.62892 17.94966 144 ft 5 kts 220°
2026-05-07 18:51 59.62856 17.94889 143 ft 11 kts 239°
2026-05-07 18:51 59.62893 17.94764 143 ft 14 kts 353°
2026-05-07 18:52 59.63001 17.94797 143 ft 17 kts 11°
2026-05-07 18:52 59.63126 17.94844 143 ft 19 kts 10°
2026-05-07 18:52 59.63255 17.94891 143 ft 19 kts 11°
2026-05-07 18:52 59.63384 17.94939 143 ft 19 kts 11°
2026-05-07 18:53 59.63513 17.94987 143 ft 19 kts 11°
2026-05-07 18:53 59.63643 17.95033 143 ft 19 kts
2026-05-07 18:53 59.63772 17.95076 143 ft 19 kts
2026-05-07 18:53 59.63901 17.95123 143 ft 19 kts 11°
2026-05-07 18:54 59.64031 17.95170 143 ft 19 kts 11°
2026-05-07 18:54 59.64160 17.95218 143 ft 19 kts 10°
2026-05-07 18:54 59.64290 17.95211 143 ft 19 kts 338°
2026-05-07 18:54 59.64384 17.95036 143 ft 19 kts 297°
2026-05-07 18:55 59.64397 17.94782 143 ft 19 kts 257°
2026-05-07 18:55 59.64334 17.94557 143 ft 19 kts 238°
2026-05-07 18:55 59.64263 17.94334 143 ft 19 kts 237°
2026-05-07 18:55 59.64190 17.94111 142 ft 19 kts 237°
2026-05-07 18:56 59.64117 17.93887 142 ft 19 kts 237°
2026-05-07 18:56 59.64047 17.93665 142 ft 19 kts 240°
2026-05-07 18:56 59.63999 17.93478 142 ft 10 kts 251°
2026-05-07 18:56 59.63983 17.93331 142 ft 11 kts 250°
2026-05-07 18:57 59.63923 17.93225 142 ft 12 kts 211°
2026-05-07 18:57 59.63867 17.93166 142 ft 4 kts 207°
2026-05-07 18:57 59.63853 17.93152 142 ft 0 kts 207°